Sign-in with your pilot id or email, or register

ICAO: ENGM Name / Country: Oslo/Gardermoen / Norway
Latitude: 60.1939 Longitude: 11.1004
Total Arrivals:
Strict Standards: Non-static method AirportData::getarrflights() should not be called statically, assuming $this from incompatible context in /var/www/customers/vh-7192/web/home/phpvms/core/templates/airport_info.tpl on line 18
0
Total Departures:
Strict Standards: Non-static method AirportData::getdeptflights() should not be called statically, assuming $this from incompatible context in /var/www/customers/vh-7192/web/home/phpvms/core/templates/airport_info.tpl on line 21
2
Latest Arrival: (-) Latest Departure: 2131 (ENGM-ESSA) Laszlo Bartucz
Metar: ENGM 172250Z 00000KT 0650 R19R/1200U R01R/0800N R19L/1000N R01L/0750N -RA FG VV002 03/03 Q1004
More info

Charts for ENGM


NOTAM


Warning: file_get_contents(http://api.vateud.net/notams/ENGM.json): failed to open stream: Redirection limit reached, aborting in /var/www/customers/vh-7192/web/home/phpvms/core/common/NOTAMSData.class.php on line 18

Warning: Invalid argument supplied for foreach() in /var/www/customers/vh-7192/web/home/phpvms/core/common/NOTAMSData.class.php on line 22

Oslo/Gardermoen